{"data":{"norad_id":58551,"intl_designator":"2023-192W","name":"STARLINK-30999","alt_names":[],"object_type":"PAYLOAD","status":"ACTIVE","operator":null,"country":"US","launch_date":"2023-12-08","launch_site_code":"AFWTR","launch_vehicle":null,"mission":null,"orbit_class":"UNKNOWN","rcs_meters":null,"size_class":null,"mass_kg":null,"dimensions":null,"purposes":["comms"],"wikipedia_slug":null,"has_3d_model":false,"image_url":null,"decayed_at":null,"tle_current":{"epoch":"2026-09-20T14:42:25.372224Z","epoch_age_seconds":140101,"freshness":"FRESH","line1":"1 58551U 23192W   26263.61279366 -.00003366  00000+0 -88529-4 0  9995","line2":"2 58551  53.1608 224.8255 0001310  84.0511 276.0641 15.34400785156006","mean_motion":15.34400785,"eccentricity":0.000131,"inclination_deg":53.1608,"raan_deg":224.8255,"arg_perigee_deg":84.0511,"mean_anomaly_deg":276.0641,"bstar":-8.8529e-5,"rev_number":15600,"period_min":93.847710068788,"perigee_km":461.80475725685,"apogee_km":463.59705678849,"semimajor_km":6840.8379070227,"source":"CELESTRAK","updated_at":"2026-09-21T09:00:33.916323Z"}}}